[[{"header":{"parameterUnit":"m.s-1","parameterCategory":1,"la1":30.2991,"la2":30.254,"lo1":-89.0895,"lo2":-89.0444,"dy":0.0017,"dx":0.0017,"nx":28,"ny":28,"refTime":"2023-10-16T09:00:00:Z","depth":0,"parameterNumber":2,"parameterNumberName":"U-component_of_WINDS"},"data":[0,0,0,0,0,0,0,0,0,0,0,0,0,0,0,0,0,0,0,0,0,0,0,0,0,0,0,0,0,0,0,0,0,0,0,0,0,0,0,0,0,0,0,0,0,0,0,0,0,0,0,0,0,0,0,0,0,0,1.1813,1.1812,0,1.1702,1.17,1.1699,1.1673,1.1673,1.1674,1.1675,1.1555,1.1551,1.1548,0,0,0,0,0,0,0,0,0,0,0,0,0,1.1996,1.1993,1.1813,1.1811,1.181,1.1702,1.17,1.1699,1.1673,1.1673,1.1674,1.1675,1.1557,1.1552,1.1547,0,0,0,0,0,0,0,0,0,0,0,0,0,1.1904,1.1992,1.1813,1.1784,1.178,1.1702,1.17,1.1698,1.1672,1.1674,1.1675,1.1676,1.1558,1.1552,1.1547,1.1488,0,0,1.1529,1.1526,0,0,0,0,0,0,0,0,1.1909,1.1897,1.179,1.1786,1.1782,1.1702,1.1721,1.1628,1.1672,1.1713,1.1675,1.1676,1.1603,1.1593,1.157,1.1482,1.1477,1.1528,1.1525,1.1522,1.1521,0,0,0,0,0,0,0,1.1915,1.1901,1.1769,1.1788,1.1783,1.1774,1.1763,1.1703,1.1653,1.171,1.1708,1.1695,1.1601,1.1576,1.1567,1.1475,1.1528,1.1523,1.152,1.1517,1.1331,1.1329,0,0,0,0,0,0,1.1928,1.1907,1.1772,1.1765,1.185,1.177,1.1757,1.1727,1.1653,1.1643,1.1694,1.1694,1.1585,1.1574,1.1563,1.1486,1.1522,1.1517,1.1513,1.1332,1.133,1.1329,0,0,0,0,0,0,1.1932,1.1916,1.1777,1.1836,1.1817,1.1766,1.1732,1.1724,1.1698,1.1642,1.1632,1.1678,1.1585,1.1571,1.1506,1.1482,1.1514,1.1509,1.1334,1.1331,1.1329,1.1335,0,0,0,0,0,0,1.1937,1.1917,1.1896,1.1835,1.1814,1.1724,1.173,1.1721,1.1689,1.1688,1.1624,1.1614,1.1585,1.1515,1.15,1.1474,1.1504,1.1336,1.1333,1.133,1.1337,1.1333,1.133,0,0,0,0,0,1.1944,1.1901,1.1895,1.1879,1.1787,1.1723,1.171,1.1679,1.1688,1.1664,1.1627,1.1616,1.1488,1.1509,1.1492,1.1464,1.1337,1.1333,1.133,1.1338,1.1334,1.133,0,0,0,0,0,0,1.1958,1.1893,1.1885,1.1822,1.1779,1.1719,1.1688,1.1676,1.1628,1.1629,1.1591,1.1576,1.1514,1.1483,1.1507,1.1402,1.1412,1.1405,1.1424,1.1419,1.1416,1.1423,1.1499,0,0,0,0,0,1.1955,1.191,1.1855,1.1805,1.1783,1.174,1.1711,1.1691,1.1643,1.1624,1.1583,1.1535,1.1483,1.145,1.14,1.1333,1.1317,1.1305,1.1302,1.13,1.1293,1.1253,1.1246,1.1318,1.1318,1.1318,0,0,1.1946,1.1905,1.1878,1.1806,1.177,1.1723,1.1724,1.1674,1.1638,1.1616,1.1552,1.152,1.1464,1.1398,1.1366,1.137,1.127,1.1296,1.1294,1.1289,1.1249,1.1242,1.1236,1.1316,1.1316,1.1316,0,0,1.1905,1.1871,1.1824,1.1788,1.1733,1.1705,1.1694,1.1635,1.1614,1.155,1.1532,1.1487,1.14,1.136,1.1329,1.1273,1.1259,1.1257,1.1239,1.12,1.1195,1.1189,1.1166,1.1159,1.1252,1.1252,1.1252,0,1.1899,1.1829,1.1801,1.1751,1.1719,1.1699,1.165,1.1616,1.1547,1.1524,1.153,1.1419,1.138,1.1303,1.1289,1.1266,1.1249,1.1263,1.1198,1.1193,1.1187,1.1165,1.1156,1.1252,1.1252,1.1252,1.1252,0,1.1824,1.1776,1.1744,1.168,1.1644,1.1595,1.1557,1.1524,1.1508,1.1478,1.1411,1.1365,1.1303,1.1284,1.1267,1.1203,1.1207,1.1206,1.1215,1.1181,1.1159,1.115,1.1252,1.1252,1.1252,1.1252,0,0,1.1787,1.1708,1.1697,1.1666,1.1605,1.1566,1.1515,1.1457,1.1428,1.1382,1.1336,1.1263,1.1262,1.1226,1.1204,1.1171,1.1125,1.1173,1.1171,1.1163,1.1049,1.1047,1.1038,1.1118,1.1116,1.1115,1.1052,0,1.1736,1.1647,1.1619,1.1543,1.1496,1.1477,1.1432,1.1388,1.1359,1.1313,1.128,1.1228,1.1232,1.121,1.1176,1.1138,1.1101,1.1143,1.1072,1.1069,1.1083,1.1027,1.1025,1.0969,1.1044,1.1043,1.1042,0,1.1664,1.1617,1.1537,1.148,1.146,1.142,1.1364,1.1322,1.1271,1.1252,1.1212,1.1193,1.1137,1.1152,1.1072,1.1101,1.107,1.1048,1.1045,1.1034,1.1051,1.1011,1.095,1.094,1.1028,1.1029,1.103,0,1.1641,1.1558,1.1499,1.1474,1.1407,1.138,1.135,1.1301,1.1267,1.1218,1.1195,1.1139,1.1108,1.1064,1.1029,1.1044,1.0951,1.0964,1.0931,1.0932,1.0909,1.0911,1.0839,1.0896,1.0896,1.0896,1.0897,0,1.1585,1.1535,1.1487,1.145,1.1394,1.1362,1.1306,1.1276,1.1232,1.1187,1.1167,1.1125,1.1084,1.1035,1.1008,1.0944,1.0931,1.0912,1.0904,1.0911,1.0913,1.0888,1.089,1.0894,1.0895,1.0895,1.0895,0,1.1548,1.1515,1.1448,1.1391,1.1375,1.1335,1.1285,1.1247,1.1218,1.1161,1.1146,1.1099,1.1041,1.1003,1.0929,1.0911,1.0839,1.0835,1.0857,1.0853,1.082,1.0822,1.0727,1.0711,1.0782,1.0782,1.0781,0,1.1512,1.1474,1.1413,1.1382,1.1353,1.1304,1.127,1.1237,1.1202,1.1141,1.111,1.1051,1.1002,1.0909,1.0867,1.0809,1.0801,1.0772,1.0792,1.0799,1.0796,1.0797,1.0792,1.0767,1.0766,1.0766,1.0766,0,1.1452,1.1437,1.139,1.1336,1.1296,1.1252,1.1207,1.1183,1.1142,1.1103,1.1044,1.1006,1.0931,1.0871,1.081,1.0777,1.0763,1.076,1.0749,1.0753,1.0766,1.0755,1.0844,1.0762,1.0762,1.0762,1.0762,1.0763,1.1412,1.1376,1.1327,1.1274,1.1238,1.1197,1.1158,1.1124,1.1075,1.1012,1.0996,1.0933,1.0882,1.0798,1.0765,1.0714,1.0717,1.0701,1.0696,1.0692,1.069,1.0778,1.0703,1.0703,1.0703,1.0703,1.0703,0,1.1347,1.1315,1.1267,1.1206,1.1164,1.1158,1.1108,1.1072,1.1018,1.0972,1.0925,1.0856,1.0798,1.0752,1.0692,1.066,1.0651,1.0644,1.0644,1.0636,1.0692,1.0706,1.0652,1.0652,1.0652,1.0652,1.0652,1.0652,1.1308,1.1246,1.1226,1.1145,1.1112,1.1052,1.1024,1.0985,1.0948,1.0872,1.0825,1.0796,1.0749,1.0685,1.0631,1.0619,1.0596,1.0589,1.0575,1.0627,1.0633,1.0638,1.0651,1.0586,1.0586,1.0523,1.0523,1.0522]},{"header":{"parameterUnit":"m.s-1","parameterCategory":1,"la1":30.2991,"la2":30.254,"lo1":-89.0895,"lo2":-89.0444,"dy":0.0017,"dx":0.0017,"nx":28,"ny":28,"refTime":"2023-10-16T09:00:00:Z","depth":0,"parameterNumber":3,"parameterNumberName":"V-component_of_WINDS"},"data":[0,0,0,0,0,0,0,0,0,0,0,0,0,0,0,0,0,0,0,0,0,0,0,0,0,0,0,0,0,0,0,0,0,0,0,0,0,0,0,0,0,0,0,0,0,0,0,0,0,0,0,0,0,0,0,0,0,0,-4.7348,-4.735,0,-4.7516,-4.7518,-4.752,-4.7446,-4.7442,-4.7438,-4.7434,-4.7602,-4.761,-4.7619,0,0,0,0,0,0,0,0,0,0,0,0,0,-4.696,-4.6968,-4.7348,-4.735,-4.7352,-4.7516,-4.7518,-4.752,-4.7447,-4.7442,-4.7437,-4.7432,-4.76,-4.7609,-4.7619,0,0,0,0,0,0,0,0,0,0,0,0,0,-4.7129,-4.697,-4.7348,-4.7335,-4.7336,-4.7515,-4.7518,-4.7521,-4.7448,-4.7442,-4.7436,-4.743,-4.7596,-4.7608,-4.7621,-4.782,0,0,-4.7659,-4.7664,0,0,0,0,0,0,0,0,-4.7119,-4.7143,-4.7335,-4.7337,-4.7338,-4.7454,-4.7443,-4.7621,-4.745,-4.7405,-4.7434,-4.7427,-4.7558,-4.7573,-4.7618,-4.7828,-4.7835,-4.766,-4.7667,-4.7673,-4.7676,0,0,0,0,0,0,0,-4.7108,-4.7135,-4.7414,-4.7338,-4.734,-4.732,-4.7338,-4.7476,-4.7514,-4.7409,-4.7404,-4.7425,-4.7557,-4.7606,-4.7621,-4.7838,-4.7659,-4.7671,-4.7678,-4.7683,-4.8221,-4.8227,0,0,0,0,0,0,-4.7096,-4.7126,-4.7409,-4.7419,-4.7211,-4.7332,-4.7351,-4.7423,-4.7512,-4.752,-4.743,-4.7421,-4.7588,-4.7607,-4.7627,-4.7867,-4.7673,-4.7684,-4.7691,-4.8214,-4.8222,-4.823,0,0,0,0,0,0,-4.7088,-4.7122,-4.7402,-4.7271,-4.7306,-4.7346,-4.7426,-4.7429,-4.7478,-4.7528,-4.7534,-4.7473,-4.7584,-4.7609,-4.7773,-4.7872,-4.769,-4.7701,-4.8206,-4.8216,-4.8226,-4.8349,0,0,0,0,0,0,-4.7078,-4.712,-4.7197,-4.7274,-4.7313,-4.7547,-4.7432,-4.7437,-4.75,-4.749,-4.757,-4.7578,-4.7581,-4.7755,-4.7786,-4.7886,-4.7711,-4.8197,-4.8211,-4.8223,-4.8336,-4.8362,-4.8384,0,0,0,0,0,-4.7064,-4.7224,-4.7202,-4.7236,-4.7411,-4.7553,-4.7575,-4.7577,-4.7508,-4.7586,-4.7618,-4.7575,-4.7856,-4.7772,-4.7806,-4.7912,-4.8191,-4.8207,-4.8222,-4.8326,-4.8357,-4.8384,0,0,0,0,0,0,-4.7157,-4.7234,-4.721,-4.74,-4.7471,-4.7541,-4.7638,-4.761,-4.7701,-4.7687,-4.7683,-4.7702,-4.7872,-4.7908,-4.7813,-4.8109,-4.8013,-4.8036,-4.808,-4.8111,-4.8134,-4.8122,-4.7721,0,0,0,0,0,-4.72,-4.7311,-4.7371,-4.7533,-4.757,-4.7598,-4.766,-4.7655,-4.7728,-4.7757,-4.7801,-4.7873,-4.7977,-4.8045,-4.8144,-4.8341,-4.8357,-4.843,-4.8454,-4.8473,-4.8493,-4.86,-4.8633,-4.828,-4.828,-4.828,0,0,-4.7289,-4.7345,-4.7415,-4.7553,-4.7607,-4.7721,-4.7624,-4.7748,-4.7832,-4.7776,-4.7934,-4.7969,-4.8048,-4.8229,-4.8311,-4.8264,-4.8594,-4.8493,-4.8508,-4.8517,-4.8619,-4.8653,-4.8683,-4.829,-4.8288,-4.8287,0,0,-4.751,-4.7563,-4.7705,-4.7761,-4.7845,-4.7863,-4.7897,-4.7972,-4.7993,-4.8152,-4.8112,-4.8211,-4.839,-4.8448,-4.8502,-4.8745,-4.8709,-4.8777,-4.8902,-4.9007,-4.9035,-4.9059,-4.9147,-4.9178,-4.8796,-4.8797,-4.8797,0,-4.761,-4.7782,-4.778,-4.7909,-4.7971,-4.7925,-4.8068,-4.8122,-4.8234,-4.8277,-4.8223,-4.8448,-4.8497,-4.8692,-4.8752,-4.8796,-4.8834,-4.8768,-4.9031,-4.9056,-4.9079,-4.9162,-4.9195,-4.8804,-4.8803,-4.8803,-4.8802,0,-4.7901,-4.802,-4.8123,-4.8234,-4.8307,-4.8442,-4.846,-4.8534,-4.8522,-4.8546,-4.8708,-4.8766,-4.8876,-4.8921,-4.891,-4.9115,-4.9083,-4.9031,-4.8933,-4.912,-4.9199,-4.923,-4.8815,-4.8813,-4.881,-4.8808,0,0,-4.8186,-4.8294,-4.8333,-4.8382,-4.8472,-4.8563,-4.8695,-4.8804,-4.8868,-4.8945,-4.9056,-4.9209,-4.9161,-4.9221,-4.9216,-4.9308,-4.9498,-4.9244,-4.9245,-4.929,-4.9727,-4.9767,-4.9805,-4.9474,-4.948,-4.9485,-4.9721,0,-4.8415,-4.8648,-4.8651,-4.8865,-4.8975,-4.8933,-4.9048,-4.9115,-4.914,-4.9236,-4.9262,-4.9372,-4.9299,-4.9335,-4.9424,-4.9456,-4.9586,-4.9439,-4.9576,-4.9581,-4.956,-4.9845,-4.9888,-5.0108,-4.9751,-4.9756,-4.976,0,-4.8713,-4.8803,-4.9028,-4.9102,-4.9148,-4.9252,-4.9352,-4.9444,-4.9518,-4.953,-4.9598,-4.9579,-4.9712,-4.9611,-4.9794,-4.9695,-4.9751,-4.9775,-4.9783,-4.9797,-4.9683,-4.9868,-5.0179,-5.0212,-4.9808,-4.9804,-4.9801,0,-4.89,-4.9077,-4.9235,-4.9278,-4.9368,-4.9442,-4.9482,-4.955,-4.9616,-4.9702,-4.9745,-4.9845,-4.9901,-4.9978,-4.9987,-4.9912,-5.0172,-5.0071,-5.0185,-5.0185,-5.0243,-5.024,-5.0568,-5.0277,-5.0277,-5.0276,-5.0275,0,-4.9156,-4.9296,-4.932,-4.9418,-4.9573,-4.9573,-4.9727,-4.976,-4.9822,-4.9924,-4.9893,-4.999,-4.9994,-5.0093,-5.01,-5.0252,-5.0276,-5.0289,-5.029,-5.0293,-5.0292,-5.0331,-5.0316,-5.0285,-5.0283,-5.0281,-5.028,0,-4.9392,-4.9414,-4.9583,-4.9654,-4.9675,-4.9787,-4.9847,-4.994,-4.9961,-5.0091,-5.0122,-5.0156,-5.027,-5.0286,-5.0419,-5.0424,-5.0607,-5.059,-5.0583,-5.0581,-5.0695,-5.0684,-5.1061,-5.1111,-5.0786,-5.0789,-5.0792,0,-4.9555,-4.9662,-4.9745,-4.9812,-4.9857,-4.9965,-5.0032,-5.0036,-5.0106,-5.0199,-5.0281,-5.0392,-5.0482,-5.0667,-5.0702,-5.0804,-5.0791,-5.0916,-5.0806,-5.0806,-5.0794,-5.0789,-5.0799,-5.0938,-5.0941,-5.0944,-5.0946,0,-4.9842,-4.9847,-4.9945,-5.0048,-5.0129,-5.021,-5.0285,-5.0342,-5.0355,-5.0436,-5.0554,-5.0623,-5.076,-5.0872,-5.0973,-5.1012,-5.0983,-5.098,-5.1013,-5.1018,-5.101,-5.1017,-5.0642,-5.0972,-5.097,-5.0968,-5.0966,-5.0965,-5.0047,-5.014,-5.0214,-5.0324,-5.0382,-5.0453,-5.0544,-5.0577,-5.0676,-5.0789,-5.0785,-5.0914,-5.0985,-5.1117,-5.1165,-5.1265,-5.1224,-5.127,-5.1282,-5.1294,-5.1306,-5.0992,-5.1283,-5.1282,-5.1282,-5.1281,-5.1281,0,-5.0333,-5.0378,-5.048,-5.0588,-5.0675,-5.0639,-5.0721,-5.0796,-5.0911,-5.098,-5.1069,-5.1204,-5.1312,-5.1356,-5.1461,-5.1533,-5.1522,-5.1561,-5.1557,-5.1566,-5.1336,-5.1299,-5.1569,-5.1568,-5.1568,-5.1568,-5.1568,-5.1568,-5.0493,-5.0649,-5.0663,-5.0848,-5.0891,-5.1019,-5.1069,-5.1135,-5.119,-5.1343,-5.1433,-5.1461,-5.152,-5.163,-5.1727,-5.1737,-5.1777,-5.1823,-5.1827,-5.1611,-5.1582,-5.1555,-5.1519,-5.1831,-5.1832,-5.2049,-5.2051,-5.2053]}]]